Home > Weather > Inglewood > Past weeks

Flag for USA Past Weather in Inglewood, California, USA — Yesterday and Last 2 Weeks

Now
70 °F

Clear.


Feels Like: 68 °F
Forecast: 68 / 83 °F
Wind: 3 mph from West

Location: Hawthorne Municipal Airport

Current Time: Jul 29, 2016 at 7:17:53 AM

Latest Report: Jul 29, 2016 at 6:53 AM


Visibility: 10 mi

Pressure: 29.83 "Hg

Humidity: 87%

Dew Point: 66 °F

Location of InglewoodLocation

Past Weather in Inglewood — Graph

°F

Inglewood Temperature Yesterday

Maximum temperature yesterday: 80 °F (at 10:53 AM)
Minimum temperature yesterday: 70 °F (at 3:53 AM)
Average temperature yesterday: 75 °F

High & Low Weather Summary for the Past Weeks

 TemperatureHumidityPressure
High89 °F (Jul 23, 12:53 PM)90% (Jul 26, 5:53 AM)30.03 "Hg (Jul 26, 5:53 AM)
Low64 °F (Jul 15, 3:53 AM)32% (Jul 24, 2:53 PM)29.79 "Hg (Jul 23, 1:53 AM)
Average73 °F69%29.92 "Hg
* Reported Jul 14 5:53 AM — Jul 29 5:53 AM, Inglewood, Weather by CustomWeather, © 2016

Note: Actual official high and low records may vary slightly from our data, if they occured in-between our weather recording intervals... More about our weather records

Advertising

Inglewood Weather History for the Previous 24 Hours

Scroll right to see more
 ConditionsComfort  
Time TempWeatherWind HumidityBarometerVisibility
5:53 AM
Fri, Jul 29
70 °FClear.3 mph87%29.83 "Hg10 mi
4:53 AM71 °FClear.No wind78%29.81 "Hg10 mi
3:53 AM70 °FClear.No wind79%29.82 "Hg10 mi
2:53 AM71 °FClear.No wind78%29.82 "Hg10 mi
1:53 AM71 °FClear.No wind78%29.83 "Hg10 mi
12:53 AM71 °FClear.3 mph81%29.84 "Hg10 mi
11:53 PM
Thu, Jul 28
72 °FClear.5 mph76%29.84 "Hg10 mi
10:53 PM73 °FClear.5 mph66%29.84 "Hg10 mi
9:53 PM72 °FClear.6 mph81%29.85 "Hg10 mi
8:53 PM73 °FSunny.5 mph76%29.84 "Hg10 mi
7:53 PM74 °FSunny.8 mph74%29.83 "Hg10 mi
6:53 PM76 °FSunny.10 mph69%29.82 "Hg10 mi
5:53 PM78 °FSunny.9 mph64%29.82 "Hg10 mi
4:53 PM78 °FSunny.10 mph58%29.82 "Hg10 mi
3:53 PM79 °FSunny.12 mph56%29.83 "Hg10 mi
2:53 PM78 °FSunny.12 mph62%29.85 "Hg10 mi
1:53 PM80 °FSunny.13 mph60%29.87 "Hg10 mi
12:53 PM80 °FSunny.9 mph60%29.90 "Hg10 mi
11:53 AM80 °FSunny.8 mph60%29.91 "Hg10 mi
10:53 AM80 °FSunny.8 mph62%29.91 "Hg10 mi
9:53 AM78 °FSunny.No wind64%29.90 "Hg8 mi
8:53 AM74 °FSunny.3 mph76%29.91 "Hg10 mi
7:53 AM71 °FSunny.3 mph84%29.91 "Hg8 mi
Weather by CustomWeather, © 2016

See weather overviewHow to use our weather pages